CW2597 Weather Reports


Display with metric or nautical units.
time (UTC)temp
F
wind
direction
speed
MPH
gust
MPH
rain 1hr
in
rain 24hr
in
rain mn
in
humidity
%
barometer
mb
20260507151511 54 106 0.0 0.0 0.00 0.00 0.00 74 1015.4
20260507151205 54 148 0.0 0.0 0.00 0.02 0.00 73 1016.5
20260507150512 54 78 0.0 0.0 0.00 0.00 0.00 73 1015.4
20260507150204 54 27 0.0 0.0 0.00 0.02 0.00 74 1016.5
20260507145704 54 86 0.0 0.0 0.00 0.02 0.00 74 1016.5
20260507145511 54 86 0.0 0.0 0.00 0.00 0.00 74 1015.4
20260507145204 54 146 0.0 0.0 0.00 0.03 0.00 76 1016.5
20260507144705 54 52 0.0 0.0 0.00 0.03 0.00 74 1016.6
20260507143705 55 65 0.0 0.0 0.00 0.03 0.00 75 1016.6
20260507143205 55 110 0.0 0.0 0.00 0.04 0.00 76 1016.6
20260507142705 54 121 0.0 0.0 0.00 0.04 0.00 77 1016.6
20260507142511 54 91 0.0 0.0 0.00 0.00 0.00 76 1015.4
20260507142205 54 133 0.0 0.0 0.00 0.04 0.00 78 1016.6
20260507141704 53 153 0.0 0.0 0.00 0.05 0.00 80 1016.6
20260507141511 53 172 0.0 0.0 0.00 0.00 0.00 81 1015.4
20260507141204 52 102 0.0 0.0 0.00 0.05 0.00 80 1016.6
20260507140704 52 94 0.0 0.0 0.00 0.05 0.00 79 1016.6
20260507135705 52 92 0.0 0.0 0.00 0.06 0.00 78 1016.6
20260507135511 52 96 0.0 0.0 0.00 0.00 0.00 78 1015.5
20260507135204 52 54 0.0 0.0 0.00 0.06 0.00 78 1016.7
20260507134704 52 46 0.0 0.0 0.00 0.06 0.00 78 1016.7
20260507134511 52 345 0.0 0.0 0.00 0.00 0.00 78 1015.5
20260507134205 52 59 0.0 0.0 0.00 0.06 0.00 78 1016.7
20260507133705 52 69 0.0 0.0 0.00 0.07 0.00 78 1016.6
20260507133511 51 67 0.0 0.0 0.00 0.00 0.00 78 1015.5
20260507133205 51 62 0.0 0.0 0.00 0.08 0.00 79 1016.6
20260507132705 51 61 0.0 0.0 0.00 0.08 0.00 80 1016.6
20260507132512 51 65 0.0 0.0 0.00 0.00 0.00 80 1015.4
20260507132205 51 71 0.0 0.0 0.00 0.09 0.00 80 1016.6
20260507131704 51 91 0.0 0.0 0.00 0.09 0.00 79 1016.6
20260507131205 51 34 0.0 0.0 0.00 0.10 0.00 80 1016.5
20260507130705 51 66 0.0 0.0 0.00 0.10 0.00 80 1016.5
20260507130511 51 59 0.0 0.0 0.00 0.00 0.00 81 1015.4
20260507130205 51 359 0.0 0.0 0.00 0.11 0.00 81 1016.6
20260507125705 51 49 0.0 0.0 0.00 0.12 0.00 80 1016.5
20260507125511 51 46 0.0 0.0 0.00 0.00 0.00 79 1015.3
20260507125204 51 58 0.0 0.0 0.00 0.13 0.00 80 1016.5
20260507124704 51 81 0.0 0.0 0.00 0.13 0.00 80 1016.5
20260507124511 51 50 0.0 0.0 0.00 0.00 0.00 80 1015.2
20260507124205 51 55 0.0 0.0 0.00 0.13 0.00 80 1016.4
20260507123205 51 92 0.0 0.0 0.00 0.14 0.00 78 1016.3
20260507122511 51 357 0.0 0.0 0.00 0.00 0.00 79 1015.2
20260507122205 51 46 0.0 0.0 0.00 0.15 0.00 79 1016.2
20260507121705 51 17 0.0 0.0 0.00 0.15 0.00 79 1016.3
20260507121511 51 333 0.0 0.0 0.00 0.00 0.00 79 1015.1
20260507121205 51 44 0.0 0.0 0.00 0.16 0.00 80 1016.3
20260507120704 51 61 0.0 0.0 0.00 0.17 0.00 79 1016.2
20260507120511 51 69 0.0 0.0 0.00 0.00 0.00 79 1015.0
20260507115704 51 56 0.0 0.0 0.00 0.17 0.00 79 1016.2
20260507115510 51 61 0.0 0.0 0.00 0.00 0.00 80 1015.1
20260507115204 51 344 0.0 0.0 0.00 0.18 0.00 79 1016.3
20260507114704 51 75 0.0 0.0 0.00 0.19 0.00 80 1016.2
20260507114204 51 93 0.0 2.0 0.00 0.20 0.00 80 1016.2
20260507113704 51 54 1.0 6.0 0.00 0.20 0.00 80 1016.2
20260507113510 51 35 2.0 6.0 0.00 0.00 0.00 79 1015.0
20260507113204 51 18 1.0 3.0 0.00 0.20 0.00 79 1016.1
20260507112704 51 83 3.0 8.0 0.00 0.21 0.00 80 1016.2
20260507112510 51 87 1.0 4.0 0.00 0.00 0.00 81 1015.0
20260507112204 51 81 1.0 2.0 0.00 0.22 0.00 80 1016.1
20260507111704 51 22 1.0 3.0 0.00 0.23 0.00 80 1016.1
20260507111510 51 65 0.0 3.0 0.00 0.00 0.00 80 1014.9
20260507111204 51 54 0.0 0.0 0.00 0.24 0.00 80 1016.1
20260507110704 50 84 0.0 3.0 0.00 0.25 0.00 80 1016.0
20260507110510 50 18 1.0 6.0 0.00 0.00 0.00 80 1014.9
20260507110205 50 56 2.0 6.0 0.00 0.26 0.00 79 1016.0
20260507105704 51 74 0.0 0.0 0.00 0.27 0.00 81 1016.0
20260507105510 51 9 0.0 0.0 0.00 0.00 0.00 81 1014.8
20260507105204 50 302 0.0 0.0 0.00 0.28 0.00 82 1015.9
20260507104510 50 53 1.0 7.0 0.00 0.00 0.00 81 1014.8
20260507104204 50 43 1.0 8.0 0.00 0.29 0.00 81 1016.0
20260507103704 50 53 0.0 0.0 0.00 0.30 0.00 81 1015.9
20260507103510 50 40 0.0 0.0 0.00 0.00 0.00 81 1014.7
20260507103204 50 47 0.0 0.0 0.00 0.31 0.00 81 1015.9
20260507102704 50 48 0.0 1.0 0.00 0.31 0.00 81 1015.8
20260507102510 50 106 0.0 1.0 0.00 0.00 0.00 81 1014.6
20260507102204 50 27 0.0 0.0 0.00 0.32 0.00 81 1015.8
20260507101511 49 102 0.0 0.0 0.00 0.00 0.00 82 1014.6
20260507101204 49 46 0.0 0.0 0.00 0.34 0.00 82 1015.8
20260507100705 49 64 0.0 0.0 0.00 0.35 0.00 82 1015.7
20260507100204 49 70 0.0 0.0 0.00 0.35 0.00 83 1015.6
20260507095704 49 70 0.0 0.0 0.00 0.35 0.00 83 1015.6
20260507095204 49 63 0.0 0.0 0.00 0.35 0.00 83 1015.5
20260507094704 49 56 0.0 0.0 0.00 0.35 0.00 83 1015.5
20260507094512 49 63 0.0 0.0 0.00 0.00 0.00 84 1014.3
20260507094204 49 86 0.0 0.0 0.00 0.36 0.00 84 1015.4
20260507093704 49 46 0.0 0.0 0.00 0.36 0.00 84 1015.4
20260507093513 49 88 0.0 0.0 0.00 0.00 0.00 84 1014.2
20260507093205 49 23 0.0 0.0 0.00 0.36 0.00 84 1015.3
20260507092704 49 72 0.0 0.0 0.00 0.37 0.00 83 1015.2
20260507092512 49 60 0.0 0.0 0.00 0.00 0.00 83 1014.1
20260507092204 49 351 0.0 0.0 0.00 0.37 0.00 84 1015.2
20260507091704 49 34 0.0 1.0 0.00 0.37 0.00 83 1015.2
20260507091513 49 71 0.0 0.0 0.00 0.00 0.00 83 1014.1
20260507091204 49 97 0.0 0.0 0.00 0.37 0.00 83 1015.2
20260507090704 49 67 0.0 0.0 0.00 0.37 0.00 83 1015.1
20260507090513 49 59 0.0 0.0 0.00 0.00 0.00 83 1013.9
20260507090205 49 52 0.0 0.0 0.00 0.37 0.00 83 1015.1
20260507085704 49 55 0.0 0.0 0.00 0.38 0.00 83 1015.0
20260507085512 49 355 0.0 0.0 0.00 0.00 0.00 83 1013.8
20260507085204 49 50 0.0 0.0 0.00 0.38 0.00 84 1015.0
20260507084704 49 66 0.0 0.0 0.00 0.38 0.00 84 1014.9
20260507084513 49 34 0.0 5.0 0.00 0.00 0.00 84 1013.7
20260507084204 49 28 1.0 5.0 0.00 0.38 0.00 84 1014.8
20260507083704 49 36 1.0 6.0 0.00 0.38 0.00 85 1014.7
20260507083512 49 7 1.0 6.0 0.00 0.00 0.00 85 1013.6
20260507082704 49 43 0.0 0.0 0.00 0.39 0.00 85 1014.7
20260507082512 49 52 0.0 0.0 0.00 0.00 0.00 85 1013.5
20260507082204 49 27 0.0 0.0 0.00 0.39 0.00 85 1014.6
20260507081704 49 16 0.0 0.0 0.00 0.39 0.00 85 1014.6
20260507081512 49 16 0.0 0.0 0.00 0.00 0.00 85 1013.4
20260507081204 49 43 0.0 1.0 0.00 0.39 0.00 85 1014.6
20260507080704 49 55 0.0 0.0 0.00 0.39 0.00 86 1014.5
20260507075704 48 51 0.0 6.0 0.00 0.40 0.00 86 1014.5
20260507075204 48 58 0.0 0.0 0.00 0.40 0.00 86 1014.4
20260507074704 48 85 0.0 0.0 0.00 0.40 0.00 86 1014.3
20260507074512 48 34 0.0 0.0 0.00 0.00 0.00 86 1013.1
20260507074204 48 44 0.0 0.0 0.00 0.41 0.00 86 1014.2
20260507073704 48 62 0.0 0.0 0.00 0.42 0.00 86 1014.2
20260507073204 48 354 0.0 0.0 0.00 0.42 0.00 87 1014.1
20260507072512 48 360 0.0 1.0 0.00 0.00 0.00 87 1012.9
20260507072204 48 14 0.0 9.0 0.00 0.42 0.00 87 1014.1
20260507071704 48 59 0.0 0.0 0.00 0.43 0.00 88 1014.0
20260507071512 48 63 0.0 0.0 0.00 0.00 0.00 88 1012.8
20260507071204 48 12 0.0 0.0 0.00 0.43 0.00 88 1013.9
20260507070704 48 16 0.0 1.0 0.00 0.43 0.00 88 1013.9
20260507070513 48 65 0.0 1.0 0.00 0.00 0.00 88 1012.7
20260507070204 48 38 0.0 0.0 0.00 0.43 0.00 88 1013.9
20260507065704 48 1 0.0 0.0 0.00 0.43 0.00 88 1013.8
20260507065512 48 350 0.0 0.0 0.00 0.00 0.00 88 1012.6
20260507065204 48 32 0.0 0.0 0.00 0.43 0.00 88 1013.9
20260507064704 48 9 0.0 0.0 0.00 0.43 0.00 89 1013.8
20260507064512 48 9 0.0 0.0 0.00 0.00 0.00 89 1012.7
20260507064204 48 19 0.0 0.0 0.00 0.44 0.00 89 1013.8
20260507063204 48 357 0.0 1.0 0.00 0.45 0.00 89 1013.7
20260507062703 48 353 1.0 7.0 0.00 0.45 0.00 90 1013.7
20260507061704 47 356 1.0 3.0 0.00 0.46 0.00 91 1013.5
20260507061512 47 340 1.0 4.0 0.00 0.00 0.00 91 1012.3
20260507061204 47 348 2.0 5.0 0.00 0.46 0.00 91 1013.4
20260507060704 47 345 0.0 3.0 0.00 0.46 0.00 92 1013.4
20260507060513 47 14 0.0 4.0 0.00 0.00 0.00 92 1012.1
20260507060205 47 0 0.0 3.0 0.00 0.47 0.00 92 1013.3
20260507055704 47 346 1.0 5.0 0.00 0.48 0.00 93 1013.3
20260507055512 47 358 0.0 4.0 0.00 0.00 0.00 93 1012.1
20260507055203 47 11 0.0 3.0 0.00 0.48 0.00 93 1013.3
20260507054703 47 343 0.0 0.0 0.00 0.49 0.00 93 1013.2
20260507053704 47 340 0.0 0.0 0.00 0.50 0.00 93 1013.1
20260507053512 47 340 0.0 0.0 0.00 0.00 0.00 93 1011.9
20260507053204 47 340 0.0 0.0 0.00 0.50 0.00 93 1013.0
20260507052704 47 340 0.0 1.0 0.00 0.50 0.00 93 1013.0
20260507052512 47 340 0.0 3.0 0.00 0.00 0.00 93 1011.8
20260507052204 47 340 0.0 2.0 0.00 0.51 0.00 93 1012.9
20260507051704 47 330 0.0 0.0 0.00 0.51 0.00 93 1012.9
20260507051512 47 330 0.0 0.0 0.00 0.00 0.00 93 1011.8
20260507050706 46 340 0.0 0.0 0.00 0.52 0.00 93 1012.8
20260507050513 47 340 0.0 0.0 0.00 0.00 0.00 93 1011.7
20260507050205 46 340 0.0 0.0 0.00 0.53 0.00 93 1012.7
20260507045705 46 340 0.0 0.0 0.00 0.53 0.00 93 1012.7
20260507045513 46 340 0.0 0.0 0.00 0.00 0.00 93 1011.5
20260507045206 46 340 0.0 0.0 0.00 0.54 0.00 93 1012.6
20260507044706 46 340 0.0 0.0 0.00 0.54 0.00 93 1012.6
20260507044512 46 340 0.0 0.0 0.00 0.00 0.00 93 1011.4
20260507044205 46 340 0.0 0.0 0.00 0.54 0.00 93 1012.6
20260507043706 46 340 0.0 0.0 0.00 0.55 0.00 93 1012.5
20260507043512 46 340 0.0 0.0 0.00 0.00 0.00 93 1011.3
20260507043206 46 340 0.0 0.0 0.00 0.56 0.00 93 1012.5
20260507042706 46 340 0.0 0.0 0.00 0.56 0.00 93 1012.5
20260507042512 46 340 0.0 0.0 0.00 0.00 0.00 93 1011.2
20260507042206 46 340 0.0 0.0 0.00 0.57 0.00 93 1012.4
20260507041705 46 340 0.0 0.0 0.00 0.57 0.00 93 1012.4
20260507041512 46 340 0.0 0.0 0.00 0.00 0.00 93 1011.2
20260507041205 46 340 0.0 0.0 0.00 0.57 0.00 93 1012.3
20260507040706 46 340 0.0 0.0 0.00 0.58 0.00 93 1012.3
20260507040512 46 340 0.0 0.0 0.00 0.00 0.00 93 1011.1
20260507040206 46 340 0.0 0.0 0.00 0.58 0.00 93 1012.3
20260507035706 46 340 0.0 0.0 0.00 0.59 0.00 93 1012.3
20260507035205 46 340 0.0 0.0 0.00 0.59 0.00 93 1012.2
20260507034706 46 340 0.0 0.0 0.00 0.60 0.00 93 1012.1
20260507034512 46 340 0.0 0.0 0.00 0.00 0.00 93 1011.0
20260507033706 46 340 0.0 0.0 0.00 0.61 0.00 93 1012.1
20260507033512 46 340 0.0 0.0 0.00 0.00 0.00 93 1010.9
20260507033206 46 340 0.0 0.0 0.00 0.61 0.00 93 1012.0
20260507031705 46 340 0.0 0.0 0.00 0.63 0.00 93 1011.9
20260507031512 46 340 0.0 0.0 0.00 0.00 0.00 93 1010.7
20260507031206 46 340 0.0 0.0 0.00 0.64 0.00 93 1011.9
20260507030705 45 340 0.0 0.0 0.00 0.65 0.00 93 1011.9
20260507030513 45 340 0.0 0.0 0.00 0.00 0.00 93 1010.7
20260507030205 45 340 0.0 0.0 0.00 0.65 0.00 92 1011.9
20260507025705 45 340 0.0 0.0 0.00 0.65 0.00 92 1011.8
20260507025206 45 340 0.0 0.0 0.00 0.66 0.00 92 1011.8
20260507024705 46 340 0.0 0.0 0.00 0.67 0.00 92 1011.7
20260507024205 46 340 0.0 0.0 0.00 0.67 0.00 92 1011.6
20260507023706 46 340 0.0 0.0 0.00 0.68 0.00 92 1011.6
20260507023512 46 340 0.0 0.0 0.00 0.00 0.00 92 1010.4
20260507023206 46 340 0.0 0.0 0.00 0.69 0.00 92 1011.5
20260507022705 46 340 0.0 0.0 0.00 0.69 0.00 92 1011.5
20260507022512 47 340 0.0 0.0 0.00 0.00 0.00 92 1010.4
20260507021512 47 340 0.0 0.0 0.00 0.00 0.00 92 1010.3
20260507021206 47 340 0.0 0.0 0.00 0.71 0.00 92 1011.5
20260507020705 47 340 0.0 0.0 0.00 0.71 0.00 92 1011.5
20260507020512 47 340 0.0 0.0 0.00 0.00 0.00 92 1010.3
20260507020205 47 340 0.0 0.0 0.00 0.72 0.00 92 1011.4
20260507015705 47 340 0.0 0.0 0.00 0.72 0.00 92 1011.5
20260507015512 47 340 0.0 0.0 0.00 0.00 0.00 92 1010.3
20260507015205 47 340 0.0 0.0 0.00 0.72 0.00 92 1011.5
20260507014706 47 340 0.0 0.0 0.00 0.73 0.00 92 1011.4
20260507014512 47 340 0.0 0.0 0.00 0.00 0.00 92 1010.2
20260507014205 47 340 0.0 0.0 0.00 0.73 0.00 92 1011.3
20260507013705 47 340 0.0 0.0 0.00 0.74 0.00 92 1011.3
20260507013512 47 340 0.0 0.0 0.00 0.00 0.00 92 1010.2
20260507013206 48 340 0.0 0.0 0.00 0.75 0.00 92 1011.3
20260507012706 48 340 0.0 0.0 0.00 0.75 0.00 92 1011.2
20260507012512 48 340 0.0 0.0 0.00 0.00 0.00 92 1010.0
20260507012205 48 340 0.0 0.0 0.00 0.76 0.00 92 1011.2
20260507011706 48 340 0.0 0.0 0.00 0.76 0.00 92 1011.1
20260507011512 48 340 0.0 0.0 0.00 0.00 0.00 92 1010.0
20260507011206 48 340 0.0 0.0 0.00 0.76 0.00 92 1011.1
20260507010705 48 340 0.0 0.0 0.00 0.76 0.00 92 1011.1
20260507010513 48 340 0.0 0.0 0.00 0.00 0.00 92 1010.0
20260507010205 48 340 0.0 0.0 0.00 0.76 0.00 92 1011.1
20260507005705 48 340 0.0 0.0 0.00 0.77 0.00 92 1011.1
20260507005512 48 340 0.0 0.0 0.00 0.00 0.00 92 1009.9
20260507005206 48 340 0.0 0.0 0.00 0.77 0.00 92 1011.0
20260507004705 48 340 0.0 0.0 0.00 0.77 0.00 92 1011.1
20260507004206 48 340 0.0 0.0 0.00 0.77 0.00 92 1011.0
20260507003512 48 340 0.0 0.0 0.00 0.00 0.00 92 1009.9
20260507003205 48 340 0.0 0.0 0.00 0.78 0.00 92 1011.0
20260507002705 48 340 0.0 0.0 0.00 0.78 0.00 92 1011.0
20260507002512 48 340 0.0 0.0 0.00 0.00 0.00 92 1009.7
20260507001706 48 340 0.0 0.0 0.00 0.78 0.00 92 1010.9
20260507001205 48 340 0.0 0.0 0.00 0.78 0.00 92 1010.9
20260507000705 48 340 0.0 0.0 0.00 0.78 0.00 92 1010.8
20260507000512 48 340 0.0 0.0 0.00 0.00 0.00 92 1009.7
20260506235705 48 340 0.0 0.0 0.00 0.78 0.00 92 1010.9
20260506235205 48 340 0.0 0.0 0.00 0.78 0.00 92 1011.0
20260506234705 48 340 0.0 0.0 0.00 0.78 0.00 92 1010.9
20260506234512 48 340 0.0 0.0 0.00 0.00 0.00 92 1009.7
20260506234206 48 340 0.0 0.0 0.00 0.78 0.00 92 1010.8
20260506233706 48 340 0.0 0.0 0.00 0.78 0.00 92 1010.8
20260506233512 48 340 0.0 0.0 0.00 0.00 0.00 92 1009.6
20260506233205 48 340 0.0 0.0 0.00 0.78 0.00 92 1010.8
20260506232706 48 340 0.0 0.0 0.00 0.78 0.00 92 1010.8
20260506232205 48 340 0.0 0.0 0.00 0.78 0.00 92 1010.8
20260506231511 48 340 0.0 0.0 0.00 0.00 0.00 92 1009.6
20260506231205 48 340 0.0 0.0 0.00 0.78 0.00 92 1010.9
20260506230512 48 340 0.0 0.0 0.00 0.00 0.00 91 1009.6
20260506230205 48 340 0.0 0.0 0.00 0.78 0.00 91 1010.8
20260506225705 48 340 0.0 0.0 0.00 0.78 0.00 91 1010.8
20260506224705 48 340 0.0 0.0 0.00 0.78 0.00 91 1010.7
20260506224511 48 340 0.0 0.0 0.00 0.00 0.00 91 1009.5
20260506224206 48 340 0.0 0.0 0.00 0.78 0.00 91 1010.6
20260506223705 48 340 0.0 0.0 0.00 0.78 0.00 91 1010.7
20260506223512 48 340 0.0 0.0 0.00 0.00 0.00 91 1009.5
20260506223205 48 340 0.0 0.0 0.00 0.78 0.00 91 1010.6
20260506222705 48 340 0.0 0.0 0.00 0.78 0.00 91 1010.6
20260506222511 48 340 0.0 0.0 0.00 0.00 0.00 91 1009.4
20260506222205 48 340 0.0 0.0 0.00 0.78 0.00 91 1010.6
20260506221706 48 340 0.0 0.0 0.00 0.78 0.00 91 1010.6
20260506221512 48 340 0.0 0.0 0.00 0.00 0.00 91 1009.5
20260506221205 48 340 0.0 0.0 0.00 0.78 0.00 91 1010.6
20260506220705 48 340 0.0 0.0 0.00 0.78 0.00 91 1010.6
20260506220206 48 340 0.0 0.0 0.00 0.78 0.00 91 1010.6
20260506215705 48 349 0.0 0.0 0.00 0.78 0.78 91 1010.6
20260506215512 48 340 0.0 0.0 0.00 0.78 0.78 91 1009.5
20260506215205 48 350 0.0 0.0 0.00 0.78 0.78 91 1010.6
20260506214705 48 350 0.0 0.0 0.00 0.78 0.78 91 1010.6
20260506214512 48 350 0.0 0.0 0.00 0.78 0.78 91 1009.4
20260506214206 48 350 0.0 0.0 0.00 0.78 0.78 91 1010.6
20260506213705 48 350 0.0 0.0 0.00 0.78 0.78 91 1010.6
20260506213513 48 350 0.0 0.0 0.00 0.78 0.78 91 1009.3
20260506213205 48 350 0.0 0.0 0.00 0.78 0.78 91 1010.5
20260506212705 48 350 0.0 0.0 0.00 0.78 0.78 91 1010.5
20260506212512 48 350 0.0 0.0 0.00 0.78 0.78 91 1009.3
20260506212205 48 350 0.0 0.0 0.00 0.78 0.78 91 1010.4
20260506211705 48 350 0.0 0.0 0.00 0.78 0.78 91 1010.4
20260506211512 48 350 0.0 0.0 0.00 0.78 0.78 91 1009.2
20260506211206 48 350 0.0 0.0 0.00 0.78 0.78 91 1010.4
20260506210705 48 350 0.0 0.0 0.00 0.78 0.78 91 1010.4
20260506210512 48 350 0.0 0.0 0.00 0.78 0.78 91 1009.2
20260506210205 48 350 0.0 0.0 0.00 0.78 0.78 91 1010.4
20260506205704 48 350 0.0 0.0 0.00 0.78 0.78 91 1010.3
20260506205512 48 350 0.0 0.0 0.00 0.78 0.78 91 1009.1
20260506205205 48 350 0.0 0.0 0.00 0.78 0.78 91 1010.3
20260506204705 48 350 0.0 0.0 0.00 0.78 0.78 91 1010.2
20260506204512 48 350 0.0 0.0 0.00 0.78 0.78 91 1009.1
20260506204206 48 350 0.0 0.0 0.00 0.78 0.78 91 1010.2
20260506203705 48 350 0.0 0.0 0.00 0.78 0.78 91 1010.2
20260506203512 48 350 0.0 0.0 0.00 0.78 0.78 91 1009.1
20260506202705 48 350 0.0 0.0 0.00 0.78 0.78 90 1010.2
20260506202512 48 350 0.0 0.0 0.00 0.78 0.78 90 1009.0
20260506202204 48 350 0.0 0.0 0.00 0.78 0.78 90 1010.1
20260506201705 48 350 0.0 0.0 0.00 0.78 0.78 90 1010.1
20260506201205 48 350 0.0 0.0 0.00 0.78 0.78 90 1010.1
20260506200705 48 350 0.0 0.0 0.00 0.78 0.78 90 1010.1
20260506200511 48 350 0.0 0.0 0.00 0.78 0.78 90 1008.8
20260506200205 48 350 0.0 0.0 0.00 0.78 0.78 90 1010.1
20260506195205 48 350 0.0 0.0 0.00 0.78 0.78 90 1010.0
20260506194511 49 350 0.0 0.0 0.00 0.78 0.78 90 1008.8
20260506193705 49 350 0.0 0.0 0.00 0.78 0.78 90 1010.0
20260506192705 49 350 0.0 0.0 0.00 0.78 0.78 90 1009.9
20260506192511 49 350 0.0 0.0 0.00 0.78 0.78 90 1008.6
20260506192205 49 340 0.0 0.0 0.00 0.78 0.78 90 1009.8
20260506191705 49 318 0.0 0.0 0.00 0.78 0.78 90 1009.8
20260506191511 49 317 0.0 0.0 0.00 0.78 0.78 90 1008.6
20260506191205 49 340 0.0 0.0 0.00 0.78 0.78 90 1009.7
20260506190205 49 305 0.0 0.0 0.00 0.78 0.78 90 1009.6
20260506185705 49 321 0.0 0.0 0.00 0.78 0.78 89 1009.6
20260506185512 49 321 0.0 0.0 0.00 0.78 0.78 89 1008.4
20260506185205 49 291 0.0 0.0 0.00 0.78 0.78 89 1009.5
20260506184705 49 15 0.0 0.0 0.00 0.78 0.78 89 1009.4
20260506184204 49 15 0.0 0.0 0.00 0.78 0.78 89 1009.4
20260506183705 49 354 0.0 0.0 0.00 0.78 0.78 89 1009.4
20260506183511 49 354 0.0 0.0 0.00 0.78 0.78 89 1008.3
20260506183205 49 0 0.0 0.0 0.00 0.78 0.78 89 1009.3
20260506182704 49 340 0.0 0.0 0.00 0.78 0.78 89 1009.2
20260506182512 49 340 0.0 0.0 0.00 0.78 0.78 89 1008.0
20260506181704 49 0 0.0 0.0 0.00 0.78 0.78 89 1009.1
20260506181512 49 22 0.0 0.0 0.00 0.78 0.78 89 1007.9
20260506181204 49 9 0.0 0.0 0.00 0.78 0.78 89 1009.1
20260506180705 49 31 0.0 0.0 0.00 0.78 0.78 89 1009.1
20260506180512 49 6 0.0 0.0 0.00 0.78 0.78 89 1007.9
20260506180205 49 358 0.0 2.0 0.00 0.78 0.78 89 1009.1
20260506175705 50 323 0.0 3.0 0.00 0.78 0.78 89 1009.0
20260506175205 50 318 1.0 3.0 0.00 0.78 0.78 90 1009.0
20260506174705 50 315 0.0 2.0 0.00 0.78 0.78 89 1008.9
20260506174511 49 11 0.0 2.0 0.00 0.78 0.78 89 1007.8
20260506174205 50 5 0.0 8.0 0.00 0.78 0.78 89 1008.9
20260506173705 50 1 0.0 3.0 0.01 0.78 0.78 89 1008.9
20260506173511 50 83 0.0 0.0 0.01 0.78 0.78 90 1007.7
20260506173205 50 5 0.0 0.0 0.01 0.78 0.78 90 1008.8
20260506172205 49 355 0.0 0.0 0.01 0.78 0.78 90 1008.7
20260506171511 49 350 0.0 0.0 0.01 0.78 0.78 89 1007.6
20260506170705 49 20 0.0 2.0 0.01 0.78 0.78 89 1008.7
20260506170511 49 19 0.0 5.0 0.01 0.78 0.78 89 1007.6
20260506170205 49 106 1.0 5.0 0.01 0.78 0.78 90 1008.7
20260506165705 49 34 1.0 3.0 0.01 0.78 0.78 90 1008.7
20260506165511 49 25 1.0 3.0 0.01 0.78 0.78 90 1007.6
20260506164705 49 354 0.0 0.0 0.02 0.78 0.78 90 1008.7
20260506164512 49 62 0.0 0.0 0.02 0.78 0.78 90 1007.6
20260506164205 49 20 0.0 0.0 0.02 0.78 0.78 90 1008.7
20260506163704 49 4 0.0 5.0 0.01 0.77 0.77 90 1008.7
20260506163512 49 4 1.0 5.0 0.01 0.77 0.77 90 1007.6
20260506163205 49 306 1.0 3.0 0.01 0.77 0.77 90 1008.7
20260506162705 49 10 0.0 2.0 0.01 0.77 0.77 90 1008.6
20260506162511 49 57 0.0 4.0 0.01 0.77 0.77 90 1007.5
20260506162205 49 355 1.0 3.0 0.01 0.77 0.77 91 1008.7
20260506161705 49 302 0.0 0.0 0.02 0.77 0.77 91 1008.7
20260506161511 49 19 0.0 0.0 0.02 0.77 0.77 91 1007.6
20260506160704 49 8 0.0 0.0 0.02 0.77 0.77 91 1008.7
20260506160511 49 340 0.0 0.0 0.02 0.77 0.77 91 1007.5
20260506155705 49 358 0.0 1.0 0.02 0.77 0.77 91 1008.7
20260506155511 49 13 0.0 1.0 0.02 0.77 0.77 91 1007.5
20260506155205 49 6 0.0 5.0 0.02 0.77 0.77 91 1008.6
20260506154705 49 12 0.0 0.0 0.02 0.76 0.76 91 1008.7
20260506154511 49 356 0.0 0.0 0.02 0.76 0.76 91 1007.5
20260506154205 49 326 0.0 0.0 0.02 0.76 0.76 91 1008.7
20260506153511 49 354 0.0 0.0 0.02 0.76 0.76 91 1007.6
20260506153205 49 350 0.0 0.0 0.02 0.76 0.76 91 1008.8
20260506152511 49 26 0.0 0.0 0.02 0.76 0.76 91 1007.7